When you browse on this site, cookies collect data to enhance your experience and personalize the content and advertising you see.
Visit our Privacy Policy to learn more. By continuing to use the site, you agree to this use of cookies and data.
  • In Latvia
  • List of Countries
  • For 7 days
  • Water Temperature
  • Weather Map
  • Weather Widgets
  • user-avatar
    Login

    Hourly Weather Kurzeszyn

    Today, 20 October, Sunday

    Time Temperature Precipitation Wind Pressure Humidity
    00:00 +14°C° 0 mm 2 mps 748 mmHg 90%
    01:00 +13°C° 0 mm 3 mps 749 mmHg 88%
    02:00 +12°C° 0 mm 3 mps 749 mmHg 88%
    03:00 +12°C° 0 mm 3 mps 749 mmHg 89%
    04:00 +12°C° 0 mm 3 mps 749 mmHg 89%
    05:00 +12°C° 0 mm 3 mps 749 mmHg 88%
    06:00 +12°C° 0 mm 3 mps 749 mmHg 87%
    07:00 +12°C° 0 mm 3 mps 749 mmHg 84%
    08:00 +14°C° 0 mm 3 mps 749 mmHg 76%
    09:00 +17°C° 0 mm 3 mps 749 mmHg 69%
    10:00 +18°C° 0 mm 3 mps 749 mmHg 62%
    11:00 +20°C° 0 mm 3 mps 749 mmHg 58%
    12:00 +21°C° 0 mm 3 mps 749 mmHg 53%
    13:00 +22°C° 0 mm 3 mps 749 mmHg 48%
    14:00 +23°C° 0 mm 2 mps 749 mmHg 51%
    15:00 +21°C° 0 mm 2 mps 749 mmHg 55%
    16:00 +20°C° 0 mm 2 mps 749 mmHg 58%
    17:00 +19°C° 0 mm 2 mps 749 mmHg 62%
    18:00 +18°C° 0 mm 2 mps 749 mmHg 65%
    19:00 +17°C° 0 mm 2 mps 750 mmHg 68%
    20:00 +16°C° 0 mm 2 mps 750 mmHg 70%
    21:00 +16°C° 0 mm 2 mps 750 mmHg 71%
    22:00 +16°C° 0 mm 2 mps 750 mmHg 72%
    23:00 +16°C° 0 mm 2 mps 750 mmHg 73%

    Tomorrow, 21 October, Monday

    Time Temperature Precipitation Wind Pressure Humidity
    00:00 +16°C° 0 mm 2 mps 750 mmHg 74%
    01:00 +16°C° 0 mm 2 mps 750 mmHg 75%
    02:00 +15°C° 0 mm 2 mps 750 mmHg 76%
    03:00 +15°C° 0 mm 2 mps 750 mmHg 76%
    04:00 +15°C° 0 mm 2 mps 750 mmHg 77%
    05:00 +15°C° 0 mm 2 mps 750 mmHg 77%
    06:00 +15°C° 0 mm 2 mps 751 mmHg 78%
    07:00 +15°C° 0 mm 2 mps 751 mmHg 78%
    08:00 +16°C° 0 mm 2 mps 751 mmHg 71%
    09:00 +19°C° 0 mm 1 mps 751 mmHg 65%
    10:00 +21°C° 0 mm 1 mps 751 mmHg 58%
    11:00 +22°C° 0 mm 1 mps 752 mmHg 55%
    12:00 +23°C° 0 mm 1 mps 752 mmHg 52%
    13:00 +24°C° 0 mm 1 mps 753 mmHg 50%
    14:00 +23°C° 0 mm 1 mps 753 mmHg 53%
    15:00 +22°C° 0 mm 1 mps 753 mmHg 57%
    16:00 +21°C° 0 mm 1 mps 753 mmHg 61%
    17:00 +20°C° 0 mm 1 mps 753 mmHg 64%
    18:00 +19°C° 0 mm 2 mps 753 mmHg 68%
    19:00 +18°C° 0 mm 2 mps 754 mmHg 71%
    20:00 +17°C° 0 mm 2 mps 754 mmHg 74%
    21:00 +17°C° 0 mm 2 mps 754 mmHg 76%
    22:00 +16°C° 0 mm 1 mps 754 mmHg 78%
    23:00 +16°C° 0 mm 1 mps 754 mmHg 79%

    Day after tomorrow, 22 October, Tuesday

    Time Temperature Precipitation Wind Pressure Humidity
    00:00 +16°C° 0 mm 1 mps 754 mmHg 79%
    01:00 +15°C° 0 mm 2 mps 754 mmHg 80%
    02:00 +15°C° 0 mm 1 mps 754 mmHg 81%
    03:00 +15°C° 0 mm 1 mps 755 mmHg 82%
    04:00 +14°C° 0 mm 1 mps 755 mmHg 83%
    05:00 +14°C° 0 mm 1 mps 755 mmHg 82%
    06:00 +14°C° 0 mm 1 mps 755 mmHg 82%
    07:00 +14°C° 0 mm 1 mps 755 mmHg 82%
    08:00 +16°C° 0 mm 1 mps 755 mmHg 75%
    09:00 +18°C° 0 mm 1 mps 755 mmHg 69%
    10:00 +20°C° 0 mm 1 mps 755 mmHg 62%
    11:00 +21°C° 0 mm 1 mps 755 mmHg 59%
    12:00 +22°C° 0 mm 1 mps 755 mmHg 56%
    13:00 +23°C° 0 mm 1 mps 755 mmHg 52%
    14:00 +22°C° 0 mm 1 mps 754 mmHg 56%
    15:00 +21°C° 0 mm 1 mps 754 mmHg 60%
    16:00 +21°C° 0 mm 1 mps 754 mmHg 64%
    17:00 +20°C° 0 mm 1 mps 754 mmHg 69%
    18:00 +18°C° 0 mm 2 mps 755 mmHg 74%
    19:00 +17°C° 0 mm 2 mps 755 mmHg 80%
    20:00 +16°C° 0 mm 2 mps 755 mmHg 83%
    21:00 +16°C° 0 mm 2 mps 755 mmHg 87%
    22:00 +15°C° 0 mm 2 mps 755 mmHg 91%
    23:00 +15°C° 0 mm 2 mps 755 mmHg 92%

    23 October, Wednesday

    Time Temperature Precipitation Wind Pressure Humidity
    00:00 +13°C° 0 mm 3 mps 755 mmHg 92%
    01:00 +13°C° 0 mm 3 mps 755 mmHg 93%
    02:00 +12°C° 0 mm 3 mps 755 mmHg 93%
    03:00 +12°C° 0 mm 3 mps 755 mmHg 92%
    04:00 +11°C° 0 mm 3 mps 755 mmHg 92%
    05:00 +12°C° 0 mm 2 mps 755 mmHg 92%
    06:00 +12°C° 0 mm 1 mps 755 mmHg 92%
    07:00 +12°C° 0 mm 1 mps 755 mmHg 92%
    08:00 +13°C° 0 mm 1 mps 755 mmHg 86%
    09:00 +14°C° 0 mm 1 mps 755 mmHg 79%
    10:00 +15°C° 0 mm 2 mps 755 mmHg 73%
    11:00 +16°C° 0 mm 1 mps 755 mmHg 69%
    12:00 +16°C° 0 mm 1 mps 755 mmHg 65%
    13:00 +18°C° 0 mm 1 mps 755 mmHg 62%
    14:00 +16°C° 0 mm 2 mps 754 mmHg 64%
    15:00 +16°C° 0 mm 2 mps 754 mmHg 66%
    16:00 +15°C° 0 mm 2 mps 754 mmHg 69%
    17:00 +15°C° 0 mm 2 mps 754 mmHg 72%
    18:00 +13°C° 0 mm 3 mps 753 mmHg 75%
    19:00 +12°C° 0 mm 3 mps 753 mmHg 78%
    20:00 +11°C° 0 mm 3 mps 753 mmHg 80%
    21:00 +11°C° 0 mm 3 mps 753 mmHg 82%
    22:00 +11°C° 0 mm 3 mps 753 mmHg 84%
    23:00 +11°C° 0 mm 3 mps 753 mmHg 86%

    24 October, Thursday

    Time Temperature Precipitation Wind Pressure Humidity
    00:00 +10°C° 0 mm 3 mps 752 mmHg 88%
    01:00 +10°C° 0 mm 4 mps 752 mmHg 90%
    02:00 +10°C° 0 mm 4 mps 751 mmHg 91%
    03:00 +10°C° 0 mm 4 mps 751 mmHg 93%
    04:00 +11°C° 0 mm 4 mps 751 mmHg 94%
    05:00 +11°C° 0 mm 4 mps 750 mmHg 95%
    06:00 +10°C° 0 mm 5 mps 750 mmHg 95%
    07:00 +10°C° 0 mm 5 mps 750 mmHg 96%
    08:00 +13°C° 0 mm 5 mps 750 mmHg 88%
    09:00 +14°C° 0 mm 5 mps 749 mmHg 80%
    10:00 +16°C° 0 mm 5 mps 749 mmHg 72%
    11:00 +17°C° 0 mm 5 mps 749 mmHg 67%
    12:00 +19°C° 0 mm 5 mps 749 mmHg 62%
    13:00 +21°C° 0 mm 5 mps 748 mmHg 57%
    14:00 +20°C° 0 mm 4 mps 748 mmHg 59%
    15:00 +19°C° 0 mm 4 mps 748 mmHg 62%
    16:00 +18°C° 0 mm 3 mps 747 mmHg 65%
    17:00 +17°C° 0 mm 3 mps 747 mmHg 68%
    18:00 +17°C° 0 mm 3 mps 748 mmHg 71%
    19:00 +16°C° 0 mm 3 mps 748 mmHg 73%
    20:00 +14°C° 0 mm 3 mps 748 mmHg 73%
    21:00 +15°C° 0 mm 2 mps 748 mmHg 73%
    22:00 +15°C° 0 mm 2 mps 748 mmHg 73%
    23:00 +14°C° 0 mm 2 mps 748 mmHg 73%

    25 October, Friday

    Time Temperature Precipitation Wind Pressure Humidity
    00:00 +14°C° 0 mm 2 mps 749 mmHg 72%
    01:00 +14°C° 0 mm 2 mps 749 mmHg 72%
    02:00 +14°C° 0 mm 2 mps 749 mmHg 72%
    03:00 +13°C° 0 mm 2 mps 749 mmHg 73%
    04:00 +13°C° 0 mm 2 mps 749 mmHg 74%
    05:00 +13°C° 0 mm 2 mps 749 mmHg 75%
    06:00 +13°C° 0 mm 2 mps 750 mmHg 77%
    07:00 +11°C° 0 mm 3 mps 750 mmHg 78%
    08:00 +13°C° 0 mm 3 mps 750 mmHg 74%
    09:00 +16°C° 0 mm 3 mps 751 mmHg 69%
    10:00 +17°C° 0 mm 3 mps 751 mmHg 65%
    11:00 +18°C° 0 mm 3 mps 751 mmHg 64%
    12:00 +19°C° 0 mm 3 mps 752 mmHg 64%
    13:00 +20°C° 0 mm 3 mps 752 mmHg 63%
    14:00 +19°C° 0 mm 3 mps 752 mmHg 67%
    15:00 +18°C° 0 mm 2 mps 752 mmHg 71%
    16:00 +17°C° 0 mm 2 mps 752 mmHg 76%
    17:00 +16°C° 0 mm 2 mps 752 mmHg 80%
    18:00 +15°C° 0 mm 2 mps 753 mmHg 84%
    19:00 +14°C° 0 mm 2 mps 753 mmHg 89%
    20:00 +14°C° 0 mm 2 mps 753 mmHg 90%
    21:00 +14°C° 0 mm 1 mps 754 mmHg 91%
    22:00 +13°C° 0 mm 1 mps 754 mmHg 92%
    23:00 +13°C° 0 mm 1 mps 754 mmHg 92%
    Show more